Location: *
(28.3744°N, 81.5492°W)
Time: 03:52:28
(UTC+00:00)

Atlas Centaur 2 - Pass Details

Date: 15 June 2025
Orbit: 456 x 1256 km, 30.4° (Epoch: 11 July)

Event Time Altitude Azimuth Distance (km) Brightness Sun altitude
Exits shadow 09:52:53 - 270° (W) 3,882 5.1 -7.7°
Reaches altitude 10° 09:54:56 10° 271° (W) 3,220 4.7 -7.3°
Maximum altitude 10:03:14 78° 357° (N) 1,257 3.2 -5.7°
Drops below altitude 10° 10:10:57 10° 84° (E) 3,010 6.4 -4.3°
Sets 10:13:35 0° 86° (E) 3,878 7.0 -3.8°
